SCP
0 0 0 0 0 0 0 0 0 0 0 0 0 0 0 0 0 0 0 0 0 0 0 0 0 0 0 0 0 0 0 0 0 0 0 0 0 0 0 0 0 0 0
0 0 0 0 0 0 0 0 0 0 0 -0 0 0 0 0 0 0 0 0 0 0 0 0 0 0 0 0 0 0 0 0 0 0 0 0 0 0 0 0 0 0 0
0 0 0 0 0 0 0 0 0 0 0 0 0 0 0 0 0 0 0 0 0 0 0 0 0 0 0 0 0 0 0 0 0 0 0 0 0 0 0 0 0 0 0
0 0 0 0 0 0 0 0 0 0 0 0 0 0 0 0 0 0 0 0 0 0 0 0 0 0 0 0 0 0 0 0 0 0 0 0 0 0 0 0 0 0 0
0 0 0 0 0 0 0 0 0 0 0 0 0 0 0 0 0 0 0 0 0 0 0 0 0 0 0 0 0 0 0 0 0 0 0 0 0 0 0 0 0 0 0
0 0 0 0 0 0 0 0 0 0 0 0 0 0 0 0 0 0 0 0 0 0 0 0 0 0 0 0 0 0 0 0 0 0 0 0 0 0 0 0 0 0 0
0 0 0 0 0 0 0 0 0 0 0 0 0 0 0 0 0 0 0 0 0 0 0 0 0 0 0 0 0 0 0 0 0 0 0 0 0 0 0 0 0 0 0
0 0 0 0 0 0 0 0 0 0 0 0 0 0 0 0 0 0 0 0 0 0 0 0 0 0 0 0 0 0 0 0 0 0 0 0 0 0 0 0 0 0 0
0 0 0 0 0 0 0 0 0 0 0 0 0 0 0 0 0 0 0 0 0 0 0 0 0 0 0 0 0 0 0 0 0 0 0 0 0 0 0 0 0 0 0
0 0 0 0 0 0 0 0 0 0 0 0 0 0 0 0 0 0 0 0 0 0 0 0 0 0 0 0 0 0 0 0 0 0 0 0 0 0 0 0 0 0 0
0 0 0 0 0 0 0 0 0 0 0 0 0 0 0 0 0 0 0 0 0 0 0 0 0 0 0 0 0 0 0 0 0 0 0 0 0 0 0 0 0 0 0
0 0 0 0 0 0 0 0 0 0 0 0 0 0 0 0 0 0 0 0 0 0 0 0 0 0 0 0 0 0 0 0 0 0 0 0 0 0 0 0 0 0 0
0 0 0 0 0 0 0 0 0 0 0 0 0 0 0 0 0 0 0 0 0 0 0 0 0 0 0 0 0 0 0 0 0 0 0 0 0 0 0 0 0 0 0
0 0 0 0 0 0 0 0 0 0 0 0 0 0 0 0 0 0 0 0 0 0 0 0 0 0 0 0 0 0 0 0 0 0 0 0 0 0 0 0 0 0 0
0 0 0 0 0 0 0 0 0 0 0 0 0 0 0 0 0 0 0 0 0 0 0 0 0 0 0 0 0 0 0 0 0 0 0 0 0 0 0 0 0 0 0
0 0 0 0 0 0 0 0 0 0 0 0 0 0 0 0 0 0 0 0 0 0 0 0 0 0 0 0 0 0 0 0 0 0 0 0 0 0 0 0 0 0 0
0 0 0 0 0 0 0 0 0 0 0 0 0 0 0 0 0 0 0 0 0 0 0 0 0 0 0 0 0 0 0 0 0 0 0 0 0 0 0 0 0 0 0
0 0 0 0 0 0 0 0 0 0 0 0 0 0 0 0 0 0 0 0 0 0 0 0 0 0 0 0 0 0 0 0 0 0 0 0 0 0 0 0 0 0 0
0 0 0 0 0 0 0 0 0 0 0 0 0 0 0 0 0 0 0 0 0 0 0 0 0 0 0 0 0 0 0 0 0 0 0 0 0 0 0 0 0 0 0
0 0 0 0 0 0 0 0 0 0 0 0 0 0 0 0 0 0 0 0 0 0 0 0 0 0 0 0 0 0 0 0 0 0 0 0 0 0 0 0 0 0 0
0 0 0 0 0 0 0 0 0 0 0 0 0 0 0 0 0 0 0 0 0 0 0 0 0 0 0 0 0 0 0 0 0 0 0 0 0 0 0 0 0 0 0
0 0 0 0 0 0 0 0 0 0 0 0 0 0 0 0 0 0 0 0 0 0 0 0 0 0 0 0 0 0 0 0 0 0 0 0 0 0 0 0 0 0 0
0 0 0 0 0 0 0 0 0 0 0 0 0 0 0 0 0 0 0 0 0 0 0 0 0 0 0 0 0 0 0 0 0 0 0 0 0 0 0 0 0 0 0
0 0 0 0 0 0 0 0 0 0 0 0 0 0 0 0 0 0 0 0 0 0 0 0 0 0 0 0 0 0 0 0 0 0 0 0 0 0 0 0 0 0 0
0 0 0 0 0 0 0 0 0 0 0 0 0 0 0 0 0 0 0 0 0 0 0 0 0 0 0 0 0 0 0 0 0 0 0 0 0 0 0 0 0 0 0
0 0 0 0 0 0 0 0 0 0 0 0 0 0 0 0 0 0 0 0 0 0 0 0 0 0 0 0 0 0 0 0 0 0 0 0 0 0 0 0 0 0 0
Wind_Speed
3 4 5 5 5 6 6 6 6 6 5 4 3 4 4 4 4 4 4 4 4 4 4 4 4 4 5 5 6 4 3 3 2 2 0 1 1 4 5 6 6 7 7
4 5 5 5 5 6 6 6 6 7 6 4 4 3 4 4 4 3 4 4 4 4 4 5 4 5 4 5 5 4 3 3 3 3 3 1 1 1 2 4 6 8 6
3 4 5 5 5 6 6 6 6 7 6 6 4 4 3 3 3 3 3 4 4 5 5 5 5 5 5 6 6 6 6 4 3 3 5 4 4 2 1 2 4 6 6
3 3 4 5 5 6 6 6 6 6 6 6 5 5 4 3 4 4 4 5 5 4 5 5 5 5 5 6 7 7 5 5 4 3 2 3 4 4 2 1 1 3 5
3 3 4 4 5 5 6 6 6 6 6 6 6 5 4 4 4 4 5 5 4 4 4 5 5 6 5 6 6 6 6 5 5 4 3 2 1 2 4 3 1 1 1
3 3 4 4 5 5 5 6 6 7 7 7 7 6 6 6 6 5 5 4 4 4 4 4 4 5 5 6 7 6 7 6 6 5 4 4 4 3 3 3 3 2 1
3 4 5 5 6 6 6 6 6 7 7 7 7 7 6 6 6 5 5 4 4 3 4 4 3 4 4 5 6 7 7 7 7 7 5 4 4 4 4 4 3 2 1
3 3 4 4 5 5 5 5 6 6 7 7 7 7 6 4 4 5 4 4 3 3 4 4 3 3 3 4 5 5 7 6 7 7 7 5 5 4 4 4 4 3 1
3 3 4 4 4 4 5 5 5 5 6 7 7 7 7 6 5 5 4 3 4 3 4 3 2 2 2 2 3 3 5 6 6 7 7 6 5 5 4 4 4 5 4
3 3 3 4 4 3 4 4 4 4 5 6 6 5 6 6 6 5 6 6 6 5 5 5 4 3 2 1 2 2 3 4 5 5 6 6 5 5 4 4 4 4 5
4 4 4 4 3 3 3 3 4 4 5 5 5 6 6 7 6 6 6 6 5 6 7 5 4 4 3 2 1 1 2 4 4 4 5 6 6 5 5 4 4 4 4
4 4 4 3 3 3 3 3 3 3 3 4 5 6 6 6 6 7 7 6 6 6 6 6 5 5 5 4 3 1 1 2 4 5 5 6 5 6 5 5 5 5 4
4 3 3 3 3 3 3 2 2 2 3 3 4 5 6 6 6 6 6 6 6 6 6 6 6 5 5 5 4 2 1 0 2 3 5 6 6 6 5 6 5 4 4
4 3 3 4 3 3 2 2 2 1 2 3 4 5 5 5 5 5 6 6 6 6 6 6 6 5 5 4 4 3 2 1 0 1 3 5 6 6 7 6 6 5 5
4 4 3 3 3 3 2 1 1 1 1 2 3 4 4 5 5 5 5 6 6 6 5 5 6 6 5 5 4 3 2 1 1 1 2 3 6 8 7 6 6 7 5
4 4 3 3 3 3 3 1 1 0 1 2 2 3 4 5 5 5 5 5 5 5 5 6 6 6 6 9 8 4 2 2 2 2 2 3 4 7 8 9 10 9 7
5 4 3 3 4 4 3 3 2 1 1 1 2 3 3 4 5 5 5 5 5 5 5 5 6 6 7 10 9 7 3 3 2 2 2 3 4 5 4 7 8 6 8
5 4 3 3 3 3 3 3 3 2 2 1 1 2 3 3 4 5 5 5 4 4 4 5 5 5 8 11 9 6 4 3 3 3 3 4 4 4 5 6 6 4 4
6 5 4 3 2 3 4 5 3 2 2 1 1 1 1 2 4 5 5 4 3 4 4 4 5 6 7 12 9 6 3 4 4 4 4 4 4 7 8 7 7 6 4
5 4 3 3 3 3 5 6 4 2 2 2 2 1 1 1 3 4 4 3 3 3 3 4 5 6 6 12 10 7 3 4 4 4 4 6 6 7 7 6 7 7 5
6 5 4 3 4 4 6 6 4 4 4 3 2 1 1 1 2 3 3 3 3 4 4 4 5 6 7 10 11 9 3 3 4 3 3 3 7 7 7 6 5 7 7
6 5 4 4 4 4 6 6 6 5 4 3 2 1 1 1 1 2 3 3 4 4 4 4 4 4 6 8 9 11 9 6 4 3 2 3 6 7 7 6 8 11 9
7 5 5 5 4 4 6 7 6 5 4 3 3 2 2 1 0 1 2 2 3 3 3 3 3 4 4 6 11 11 11 8 4 3 5 7 7 7 6 7 10 8 6
7 6 5 5 5 5 6 7 7 6 5 4 4 3 3 2 1 0 1 1 1 2 2 2 3 3 3 4 5 4 4 6 5 4 6 8 9 7 7 7 6 4 4
7 6 6 7 7 6 7 7 7 6 5 4 4 4 4 3 2 1 1 1 1 2 1 1 1 2 2 4 5 3 3 3 3 3 4 4 4 4 4 4 4 4 4
7 7 7 7 7 7 7 7 7 7 6 4 4 4 3 3 3 2 1 2 3 3 2 2 1 2 2 3 4 4 5 5 5 5 4 3 3 3 3 4 3 3 4
Wind_Direction
338 349 350 352 351 347 344 337 333 328 331 326 317 307 300 295 292 281 273 266 253 244 233 233 221 204 201 202 193 186 195 200 170 133 152 327 201 184 185 184 182 189 192
346 346 349 351 346 337 333 334 335 328 328 316 297 272 272 275 272 280 288 276 264 250 241 226 218 210 204 202 199 187 179 194 174 150 139 149 336 291 193 178 187 190 186
339 332 337 338 335 333 331 332 327 326 324 323 316 312 306 302 308 307 297 287 277 259 245 235 223 214 204 204 202 193 186 192 194 174 154 157 198 228 270 196 189 183 180
318 320 326 331 328 322 323 323 322 324 325 328 329 323 317 301 284 285 285 291 288 270 251 240 230 223 217 210 208 199 192 184 189 195 194 170 160 157 186 274 190 179 180
306 313 315 314 312 318 324 320 324 327 327 329 329 323 315 296 291 293 296 298 295 286 266 245 233 227 221 217 211 202 197 193 188 180 175 166 153 141 144 174 178 143 172
306 311 313 312 313 320 328 329 333 327 326 329 328 324 317 314 314 313 312 308 300 293 284 259 240 231 222 216 211 204 203 202 195 187 179 167 161 170 154 157 166 164 179
293 305 316 319 320 323 325 328 331 324 326 331 331 325 318 315 310 307 305 307 306 301 300 281 253 236 228 219 211 204 207 203 196 194 195 189 184 163 155 149 152 150 161
289 297 301 307 315 317 319 324 329 326 330 335 333 331 330 326 320 316 313 309 300 294 306 303 279 255 237 223 207 206 209 203 200 201 194 190 192 179 168 159 150 145 159
289 291 297 304 312 315 314 316 323 329 332 334 334 339 344 346 342 338 337 333 327 325 336 330 316 303 258 231 203 206 210 202 202 202 196 191 192 187 181 168 160 156 172
287 291 293 292 297 305 311 322 327 328 328 336 343 351 348 352 351 357 360 356 355 357 359 358 354 345 342 281 211 202 205 196 199 198 194 194 191 181 179 175 168 163 161
260 268 276 285 295 311 318 324 331 339 341 343 347 354 355 359 5 8 3 1 6 8 8 8 6 4 6 359 337 220 199 196 193 188 189 195 185 180 179 173 169 171 158
240 248 265 287 302 303 306 316 325 338 339 347 357 359 358 3 9 8 4 4 10 10 9 10 14 12 15 15 12 329 235 199 193 187 182 184 180 179 177 175 177 173 161
241 252 271 282 282 282 288 308 319 331 346 3 8 6 5 7 7 4 3 6 10 11 12 13 12 9 8 7 1 358 12 209 194 186 184 177 174 178 172 175 174 169 163
234 239 259 270 271 267 269 291 305 314 358 13 15 10 1 1 360 359 0 2 4 10 10 10 6 2 2 3 358 5 19 26 93 170 177 175 177 180 175 172 168 162 155
224 224 238 253 261 256 260 268 272 310 7 18 14 2 355 358 360 0 358 358 1 7 2 6 4 359 358 4 5 5 17 41 59 96 139 161 173 178 174 166 164 159 157
216 217 231 240 243 237 232 215 201 249 51 30 7 359 3 1 358 352 352 356 356 356 2 6 3 2 360 1 15 27 36 58 77 90 97 124 143 163 163 160 163 165 165
206 208 224 241 241 227 209 186 183 149 85 38 4 4 5 2 350 346 353 353 352 357 360 360 3 357 350 7 16 33 56 60 67 83 100 109 114 120 127 141 146 157 167
198 209 221 240 239 213 182 159 139 122 108 70 4 356 3 357 346 348 348 344 345 351 353 358 360 358 1 13 20 38 58 63 63 73 86 102 105 113 116 115 108 105 118
197 206 208 205 199 187 164 144 136 129 118 117 310 315 345 354 350 347 340 338 348 354 354 356 4 6 359 12 24 51 59 71 70 69 71 94 103 116 114 111 107 95 85
187 191 186 181 186 182 152 145 155 160 187 216 231 252 291 345 347 340 336 339 348 349 357 13 9 10 5 11 28 52 68 80 75 66 61 70 93 108 107 112 114 108 100
191 182 173 185 203 174 152 155 174 200 217 211 206 229 264 285 331 346 346 354 7 12 12 15 9 11 9 12 30 48 63 82 84 75 59 62 86 95 96 98 106 116 112
193 184 182 206 211 176 158 168 198 216 216 202 202 223 257 291 24 18 8 12 23 29 15 13 9 5 4 14 30 46 55 68 84 77 60 67 84 94 98 98 108 110 103
199 195 191 207 216 192 173 183 210 210 206 202 211 220 225 264 23 47 24 17 23 28 13 15 12 357 359 12 30 39 47 54 70 70 74 79 83 84 86 102 108 105 102
201 200 194 206 219 210 199 200 201 197 194 203 212 211 207 219 251 1 35 43 22 17 8 7 2 354 1 8 9 15 28 43 57 59 67 73 74 76 82 89 92 94 109
202 196 197 207 218 211 210 210 200 189 193 207 213 208 207 203 207 216 243 240 248 240 253 286 315 348 357 341 353 17 25 34 50 67 64 63 67 71 71 75 80 89 101
201 200 205 210 216 208 211 212 203 191 187 199 208 208 207 206 202 205 261 289 261 279 280 265 255 287 301 328 7 29 39 61 80 79 77 76 78 88 94 99 92 89 105